[[{"header":{"parameterUnit":"m.s-1","parameterCategory":2,"la1":30.2991,"la2":30.254,"lo1":-89.0895,"lo2":-89.0444,"dy":0.0017,"dx":0.0017,"nx":28,"ny":28,"refTime":"2024-07-19T03:00:00:Z","depth":"0","parameterNumber":2,"parameterNumberName":"U-component_of_CURRENTS"},"data":[0,0,0,0,0,0,0,0,0,0,0,0,0,0,0,0,0,0,0,0,0,0,0,0,0,0,0,0,0,0,0,0,0,0,0,0,0,0,0,0,0,0,0,0,0,0,0,0,0,0,0,0,0,0,0,0,0,0,0.3294,0.3295,0,0.3364,0.3365,0.3365,0.3353,0.3352,0.3351,0.3351,0.3344,0.3345,0.3345,0,0,0,0,0,0,0,0,0,0,0,0,0,0.3088,0.3091,0.3294,0.3295,0.3297,0.3364,0.3365,0.3365,0.3353,0.3352,0.3351,0.3351,0.3344,0.3345,0.3345,0,0,0,0,0,0,0,0,0,0,0,0,0,0.3164,0.3092,0.3294,0.3303,0.3305,0.3364,0.3365,0.3365,0.3353,0.3352,0.3351,0.335,0.3344,0.3345,0.3345,0.337,0,0,0.3348,0.3348,0,0,0,0,0,0,0,0,0.316,0.3171,0.33,0.3303,0.3305,0.3354,0.329,0.3365,0.3353,0.3329,0.3351,0.335,0.3345,0.3346,0.3354,0.337,0.3369,0.3348,0.3348,0.3348,0.3349,0,0,0,0,0,0,0,0.3154,0.3167,0.3316,0.3302,0.3305,0.3284,0.3293,0.3304,0.3336,0.3331,0.3331,0.3349,0.3345,0.3353,0.3353,0.3369,0.3348,0.3348,0.3349,0.3349,0.343,0.3431,0,0,0,0,0,0,0.3163,0.3163,0.3313,0.3318,0.3235,0.3289,0.3299,0.3334,0.3337,0.3339,0.335,0.3349,0.3352,0.3353,0.3353,0.3401,0.3348,0.3349,0.3349,0.3428,0.343,0.3432,0,0,0,0,0,0,0.3159,0.3177,0.3311,0.3245,0.3262,0.3295,0.3333,0.3337,0.3346,0.3354,0.3353,0.3358,0.3352,0.3352,0.3375,0.3399,0.3349,0.335,0.3426,0.3429,0.3431,0.3483,0,0,0,0,0,0,0.3153,0.3175,0.3199,0.3247,0.3266,0.3371,0.3335,0.3339,0.3362,0.336,0.336,0.3359,0.3351,0.3374,0.3376,0.3399,0.335,0.3424,0.3427,0.343,0.3479,0.3487,0.3494,0,0,0,0,0,0.3145,0.3196,0.3201,0.3219,0.3301,0.3374,0.3382,0.3395,0.3363,0.3393,0.338,0.3359,0.3396,0.3377,0.3378,0.3402,0.3422,0.3426,0.343,0.3476,0.3486,0.3494,0,0,0,0,0,0,0.3121,0.3202,0.3207,0.328,0.3331,0.3375,0.3409,0.34,0.3413,0.3402,0.3381,0.3381,0.3417,0.3404,0.3383,0.3437,0.3406,0.341,0.3441,0.345,0.3457,0.3506,0.3351,0,0,0,0,0,0.3128,0.3189,0.3252,0.3312,0.3343,0.3368,0.3394,0.3404,0.3425,0.3429,0.3426,0.3422,0.3436,0.3436,0.3456,0.3478,0.356,0.3496,0.3503,0.3509,0.3552,0.3718,0.3746,0.3445,0.3445,0.3445,0,0,0.3132,0.3189,0.3219,0.331,0.3348,0.3391,0.3381,0.3439,0.3456,0.3427,0.3449,0.3457,0.3452,0.3487,0.35,0.3475,0.3635,0.3514,0.3519,0.356,0.3726,0.3755,0.3782,0.3448,0.3447,0.3447,0,0,0.3177,0.3228,0.3287,0.3329,0.3401,0.3423,0.3439,0.3487,0.3498,0.3522,0.351,0.3544,0.3539,0.3564,0.3565,0.3627,0.368,0.3615,0.368,0.3839,0.3867,0.3892,0.4026,0.4063,0.3605,0.3605,0.3606,0,0.3175,0.326,0.3314,0.337,0.3405,0.3433,0.3481,0.3501,0.3541,0.3579,0.3536,0.3606,0.3583,0.3658,0.3665,0.3647,0.3746,0.3638,0.3853,0.388,0.3905,0.4037,0.4077,0.3608,0.3608,0.3608,0.3608,0,0.326,0.3309,0.3354,0.3427,0.3468,0.3528,0.3562,0.3604,0.3602,0.363,0.3715,0.3712,0.3772,0.3746,0.3709,0.3865,0.3883,0.3855,0.3836,0.3939,0.407,0.4111,0.3613,0.3612,0.3611,0.361,0,0,0.3296,0.3395,0.3401,0.3444,0.3504,0.356,0.36,0.3686,0.3759,0.3773,0.3887,0.3877,0.392,0.3928,0.3914,0.401,0.423,0.4003,0.401,0.4146,0.4601,0.4488,0.4522,0.4256,0.4264,0.427,0.4619,0,0.3345,0.3448,0.3477,0.3555,0.3615,0.3648,0.3702,0.377,0.3826,0.3947,0.3976,0.4073,0.3975,0.4031,0.4116,0.422,0.4344,0.4139,0.4473,0.4483,0.438,0.4567,0.4386,0.4673,0.4659,0.4666,0.4671,0,0.341,0.3478,0.3563,0.3657,0.369,0.3734,0.387,0.3925,0.4073,0.4127,0.4234,0.4282,0.4422,0.4328,0.4587,0.4472,0.456,0.4616,0.4631,0.4547,0.4448,0.4569,0.4748,0.4572,0.4734,0.4729,0.4724,0,0.3437,0.3531,0.3608,0.3636,0.3746,0.3804,0.3869,0.3996,0.409,0.4285,0.4397,0.455,0.467,0.4806,0.4874,0.4787,0.5172,0.5069,0.506,0.5052,0.4975,0.4946,0.5034,0.5311,0.531,0.5309,0.5308,0,0.3489,0.3555,0.3635,0.3691,0.3815,0.386,0.4017,0.4108,0.4273,0.4398,0.4517,0.4647,0.4807,0.4994,0.5033,0.5185,0.532,0.5147,0.5166,0.498,0.4949,0.4847,0.4759,0.5322,0.5319,0.5316,0.5314,0,0.3533,0.3569,0.3684,0.38,0.3839,0.3939,0.4092,0.419,0.4356,0.4536,0.4612,0.4829,0.5045,0.5187,0.5437,0.54,0.5393,0.5556,0.5305,0.5285,0.502,0.4941,0.4972,0.4831,0.5626,0.5625,0.5625,0,0.3584,0.3643,0.377,0.3816,0.3877,0.4008,0.4075,0.4226,0.4308,0.4592,0.4663,0.4963,0.5082,0.5429,0.5481,0.5634,0.5425,0.5523,0.5292,0.5047,0.4977,0.4766,0.4629,0.5229,0.5225,0.5222,0.522,0,0.3699,0.3732,0.3811,0.3885,0.3954,0.4044,0.4142,0.4219,0.4367,0.4515,0.468,0.4824,0.5141,0.5204,0.5424,0.5462,0.523,0.5463,0.5319,0.4784,0.4466,0.4321,0.4936,0.5195,0.5197,0.5199,0.5201,0.5202,0.379,0.3833,0.3884,0.3945,0.3991,0.4015,0.4046,0.4118,0.4228,0.4357,0.4566,0.4712,0.4918,0.5177,0.518,0.5072,0.5059,0.4921,0.4891,0.4734,0.4443,0.4974,0.5153,0.5155,0.5157,0.5158,0.516,0,0.3851,0.3856,0.3921,0.3935,0.3913,0.3967,0.4013,0.398,0.3995,0.4176,0.4297,0.4496,0.4581,0.4689,0.4698,0.454,0.4338,0.4419,0.41,0.4026,0.4631,0.4447,0.4346,0.4346,0.4346,0.4346,0.4347,0.4347,0.3886,0.3902,0.3887,0.3828,0.3813,0.3726,0.3717,0.3681,0.375,0.3789,0.3873,0.4039,0.4261,0.4354,0.4196,0.4108,0.3777,0.3648,0.362,0.4038,0.408,0.412,0.3925,0.3716,0.3716,0.285,0.2843,0.2839]},{"header":{"parameterUnit":"m.s-1","parameterCategory":2,"la1":30.2991,"la2":30.254,"lo1":-89.0895,"lo2":-89.0444,"dy":0.0017,"dx":0.0017,"nx":28,"ny":28,"refTime":"2024-07-19T03:00:00:Z","depth":"0","parameterNumber":3,"parameterNumberName":"V-component_of_CURRENTS"},"data":[0,0,0,0,0,0,0,0,0,0,0,0,0,0,0,0,0,0,0,0,0,0,0,0,0,0,0,0,0,0,0,0,0,0,0,0,0,0,0,0,0,0,0,0,0,0,0,0,0,0,0,0,0,0,0,0,0,0,-0.0003,-0.0004,0,-0.0096,-0.0097,-0.0098,-0.0137,-0.0136,-0.0136,-0.0136,-0.0242,-0.0245,-0.0248,0,0,0,0,0,0,0,0,0,0,0,0,0,0.0055,0.0055,-0.0003,-0.0004,-0.0005,-0.0096,-0.0097,-0.0099,-0.0137,-0.0136,-0.0136,-0.0136,-0.0241,-0.0245,-0.0249,0,0,0,0,0,0,0,0,0,0,0,0,0,0.0002,0.0054,-0.0003,-0.0034,-0.0038,-0.0096,-0.0097,-0.0099,-0.0137,-0.0136,-0.0136,-0.0136,-0.024,-0.0245,-0.0249,-0.0286,0,0,-0.0263,-0.0265,0,0,0,0,0,0,0,0,0.0005,-0.0,-0.0029,-0.0032,-0.0036,-0.0104,-0.0116,-0.0162,-0.0137,-0.01,-0.0136,-0.0135,-0.0197,-0.0205,-0.0225,-0.0291,-0.0296,-0.0264,-0.0267,-0.0269,-0.027,0,0,0,0,0,0,0,0.0009,0.0003,-0.0041,-0.003,-0.0035,-0.0074,-0.008,-0.0125,-0.0151,-0.0103,-0.0106,-0.0115,-0.0199,-0.022,-0.0227,-0.0297,-0.0264,-0.0268,-0.0271,-0.0272,-0.0393,-0.0393,0,0,0,0,0,0,0.0026,0.0007,-0.0038,-0.0043,-0.0013,-0.0075,-0.0082,-0.0083,-0.015,-0.0159,-0.0116,-0.0117,-0.0212,-0.0222,-0.0231,-0.026,-0.0269,-0.0273,-0.0276,-0.0392,-0.0393,-0.0393,0,0,0,0,0,0,0.0028,0.0024,-0.0034,-0.002,-0.003,-0.0075,-0.0077,-0.0085,-0.0107,-0.0159,-0.0169,-0.0128,-0.0212,-0.0225,-0.0266,-0.0265,-0.0275,-0.0279,-0.0392,-0.0392,-0.0393,-0.0329,0,0,0,0,0,0,0.003,0.0025,0.0027,-0.0019,-0.003,-0.0069,-0.0078,-0.0087,-0.0112,-0.0115,-0.0173,-0.0183,-0.0213,-0.0259,-0.0271,-0.0271,-0.0283,-0.0391,-0.0392,-0.0393,-0.033,-0.0327,-0.0324,0,0,0,0,0,0.0033,0.0027,0.0028,0.0022,-0.0025,-0.0069,-0.0079,-0.0111,-0.0113,-0.0128,-0.0158,-0.0181,-0.0272,-0.0263,-0.0277,-0.0278,-0.0391,-0.0392,-0.0393,-0.0332,-0.0328,-0.0324,0,0,0,0,0,0,0.0053,0.0021,0.0021,0.0008,-0.0024,-0.0075,-0.0097,-0.0111,-0.0148,-0.0149,-0.019,-0.0202,-0.0239,-0.0272,-0.026,-0.0317,-0.0335,-0.0338,-0.0284,-0.028,-0.0277,-0.0187,-0.0287,0,0,0,0,0,0.0061,0.0049,0.0015,0.0005,-0.0012,-0.0051,-0.0073,-0.0092,-0.0129,-0.0145,-0.018,-0.0219,-0.0256,-0.0276,-0.0319,-0.0351,-0.0318,-0.0361,-0.0358,-0.0355,-0.0292,-0.0239,-0.0223,-0.0396,-0.0396,-0.0396,0,0,0.0069,0.0048,0.0043,0.0008,-0.0021,-0.0033,-0.0064,-0.0099,-0.0096,-0.0152,-0.0167,-0.0216,-0.0264,-0.0296,-0.0316,-0.0321,-0.0299,-0.0356,-0.0353,-0.029,-0.0238,-0.022,-0.0205,-0.0397,-0.0397,-0.0396,0,0,0.0074,0.0057,0.0051,0.0029,-0.001,-0.0033,-0.0038,-0.0084,-0.0095,-0.0125,-0.0156,-0.0181,-0.0259,-0.0268,-0.0288,-0.0293,-0.0288,-0.0334,-0.0239,-0.0191,-0.0174,-0.0159,-0.0124,-0.0106,-0.0328,-0.0327,-0.0327,0,0.0089,0.0094,0.004,0.0031,0.0039,-0.0024,-0.0006,-0.0043,-0.0091,-0.006,-0.0122,-0.0155,-0.0229,-0.02,-0.022,-0.0279,-0.0252,-0.025,-0.018,-0.0164,-0.0149,-0.0117,-0.0098,-0.0324,-0.0325,-0.0325,-0.0325,0,0.0093,0.0108,0.0097,0.0086,0.0071,0.007,0.0032,0.0028,0.0005,-0.0001,0.0012,-0.0075,-0.0059,-0.013,-0.0188,-0.0124,-0.0141,-0.0184,-0.0174,-0.0127,-0.0099,-0.008,-0.032,-0.0321,-0.0322,-0.0323,0,0,0.0125,0.0114,0.0118,0.0171,0.0119,0.0135,0.0127,0.0158,0.0241,0.0145,0.0262,0.013,0.0126,0.0106,0.0032,0.0037,0.0101,-0.0028,-0.0027,0.0035,0.0216,0.0144,0.0157,0.0075,0.0079,0.0083,0.0185,0,0.0169,0.022,0.0181,0.0259,0.0305,0.0272,0.0308,0.0322,0.0324,0.0406,0.0332,0.0383,0.0201,0.0235,0.0205,0.0148,0.016,0.0079,0.014,0.0143,0.0097,0.0181,0.0118,0.0201,0.0203,0.0207,0.0209,0,0.0212,0.0255,0.0347,0.045,0.0468,0.0503,0.0632,0.0651,0.0709,0.0723,0.0742,0.0699,0.0695,0.0538,0.0489,0.0449,0.0357,0.0283,0.0284,0.023,0.0108,0.0157,0.0235,-0.0051,0.0238,0.0236,0.0234,0,0.0345,0.0393,0.0506,0.0526,0.0595,0.067,0.0716,0.078,0.0869,0.0964,0.1064,0.102,0.1066,0.0931,0.0714,0.0639,0.0668,0.0551,0.0407,0.0399,0.0371,0.0355,0.0218,0.0564,0.0563,0.0563,0.0563,0,0.0453,0.0553,0.0597,0.0672,0.0849,0.0838,0.1039,0.1079,0.1193,0.1352,0.1267,0.1394,0.1174,0.1125,0.0877,0.0711,0.0801,0.0482,0.0446,0.0381,0.0365,0.0133,0.0006,0.0567,0.0566,0.0565,0.0565,0,0.0616,0.0626,0.0777,0.0878,0.0927,0.1067,0.1227,0.1366,0.1455,0.1669,0.172,0.174,0.1684,0.1425,0.125,0.0974,0.0635,0.0697,0.0621,0.0573,0.0135,0.0016,-0.0049,-0.0156,0.0587,0.0587,0.0586,0,0.0724,0.0815,0.0947,0.1036,0.1098,0.1277,0.14,0.1499,0.1638,0.1872,0.1994,0.2043,0.2065,0.1773,0.132,0.0946,0.0678,0.0642,0.0471,0.0155,-0.0003,-0.01,-0.0193,0.0447,0.0445,0.0444,0.0443,0,0.0941,0.0971,0.1072,0.1233,0.1374,0.1541,0.1719,0.1867,0.2006,0.2198,0.2411,0.2466,0.2209,0.1837,0.1331,0.1016,0.0438,0.06,0.0317,-0.0061,-0.0207,-0.0344,0.0314,0.043,0.0431,0.0432,0.0433,0.0433,0.1103,0.1193,0.1282,0.1436,0.1582,0.1763,0.1925,0.2103,0.2351,0.262,0.2666,0.2789,0.2245,0.1556,0.1135,0.03,0.0358,0.0013,-0.0082,-0.0134,-0.0307,0.0313,0.0345,0.0345,0.0346,0.0347,0.0347,0,0.127,0.1326,0.1474,0.163,0.1781,0.1835,0.2098,0.2256,0.2531,0.2778,0.2947,0.2712,0.2036,0.133,0.0227,-0.0317,-0.0514,-0.0599,-0.077,-0.0814,-0.0227,-0.0313,-0.0475,-0.0475,-0.0474,-0.0474,-0.0474,-0.0474,0.1365,0.1483,0.1517,0.1751,0.1867,0.209,0.2238,0.2478,0.2688,0.2937,0.2996,0.2994,0.2353,0.0548,-0.0726,-0.1,-0.1321,-0.138,-0.1507,-0.1178,-0.1131,-0.1085,-0.1202,-0.1547,-0.1548,-0.209,-0.2096,-0.21]}],[{"header":{"parameterUnit":"m.s-1","parameterCategory":2,"la1":30.2991,"la2":30.254,"lo1":-89.0895,"lo2":-89.0444,"dy":0.0017,"dx":0.0017,"nx":28,"ny":28,"refTime":"2024-07-19T03:00:00:Z","depth":"2","parameterNumber":2,"parameterNumberName":"U-component_of_CURRENTS"},"data":[0,0,0,0,0,0,0,0,0,0,0,0,0,0,0,0,0,0,0,0,0,0,0,0,0,0,0,0,0,0,0,0,0,0,0,0,0,0,0,0,0,0,0,0,0,0,0,0,0,0,0,0,0,0,0,0,0,0,0.2671,0.2671,0,0.2722,0.2723,0.2724,0.2773,0.2774,0.2774,0.2775,0.2831,0.2832,0.2833,0,0,0,0,0,0,0,0,0,0,0,0,0,0.2552,0.2555,0.2671,0.2672,0.2672,0.2722,0.2723,0.2724,0.2773,0.2774,0.2774,0.2775,0.2831,0.2832,0.2833,0,0,0,0,0,0,0,0,0,0,0,0,0,0.2605,0.2556,0.2671,0.2702,0.2705,0.2722,0.2723,0.2724,0.2773,0.2774,0.2774,0.2775,0.2831,0.2832,0.2834,0.2826,0,0,0.2838,0.2839,0,0,0,0,0,0,0,0,0.2602,0.2609,0.2697,0.27,0.2703,0.2741,0.2702,0.2758,0.2773,0.2748,0.2775,0.2776,0.28,0.2805,0.2814,0.2829,0.2831,0.2838,0.2839,0.284,0.284,0,0,0,0,0,0,0,0.2598,0.2607,0.2692,0.2697,0.2701,0.2692,0.2701,0.2713,0.277,0.275,0.2754,0.2758,0.2803,0.2812,0.2815,0.2832,0.2838,0.284,0.284,0.2841,0.2911,0.2912,0,0,0,0,0,0,0.2593,0.2604,0.2691,0.2694,0.2653,0.2693,0.2703,0.2729,0.277,0.2776,0.2757,0.276,0.2809,0.2813,0.2817,0.2913,0.284,0.2841,0.2842,0.291,0.2911,0.2912,0,0,0,0,0,0,0.2591,0.2601,0.2689,0.2648,0.2658,0.2695,0.2723,0.273,0.2768,0.2775,0.2782,0.2791,0.281,0.2815,0.2853,0.2911,0.2842,0.2843,0.2909,0.2911,0.2912,0.3038,0,0,0,0,0,0,0.2587,0.26,0.262,0.2648,0.266,0.2748,0.2722,0.273,0.2767,0.2772,0.2806,0.281,0.2811,0.285,0.2854,0.2912,0.2844,0.2908,0.291,0.2911,0.3033,0.3044,0.3053,0,0,0,0,0,0.2583,0.2593,0.2621,0.2631,0.2686,0.275,0.2758,0.2784,0.2768,0.2815,0.2813,0.2811,0.2864,0.2853,0.2857,0.2917,0.2907,0.2909,0.2911,0.3028,0.3042,0.3053,0,0,0,0,0,0,0.2553,0.26,0.2631,0.2658,0.2729,0.276,0.2791,0.2798,0.2831,0.2847,0.2824,0.2831,0.2888,0.287,0.2857,0.2936,0.2885,0.2888,0.2972,0.2985,0.2995,0.3043,0.2846,0,0,0,0,0,0.2557,0.2589,0.2647,0.2686,0.2721,0.2762,0.2786,0.2828,0.2853,0.2871,0.2878,0.2883,0.2894,0.2914,0.2929,0.2971,0.2999,0.3007,0.3017,0.3026,0.3065,0.3169,0.3195,0.292,0.292,0.2919,0,0,0.256,0.259,0.2611,0.2684,0.2737,0.2822,0.2782,0.2864,0.2914,0.287,0.2931,0.2928,0.2911,0.2967,0.299,0.2965,0.3111,0.3029,0.3038,0.3072,0.3175,0.3202,0.3227,0.2921,0.2921,0.292,0,0,0.2636,0.262,0.2715,0.2768,0.2869,0.2878,0.2909,0.2974,0.2985,0.3045,0.3016,0.3052,0.3063,0.3078,0.3075,0.3145,0.3162,0.3137,0.3239,0.3339,0.3364,0.3387,0.3433,0.3459,0.3143,0.3144,0.3144,0,0.2647,0.2753,0.2754,0.2871,0.2895,0.291,0.3016,0.3033,0.3097,0.3101,0.3091,0.3134,0.3124,0.318,0.3205,0.3179,0.3219,0.3198,0.336,0.3382,0.3404,0.3445,0.3472,0.315,0.3149,0.3149,0.3148,0,0.2842,0.2898,0.2948,0.308,0.3115,0.3192,0.3217,0.3252,0.3238,0.3254,0.3313,0.3311,0.3337,0.3335,0.3295,0.3422,0.3395,0.3365,0.3343,0.344,0.3475,0.3502,0.3159,0.3157,0.3155,0.3153,0,0,0.291,0.3054,0.3071,0.3129,0.321,0.3253,0.3313,0.3357,0.3392,0.3444,0.3503,0.3522,0.3524,0.3522,0.3491,0.3579,0.3741,0.3548,0.355,0.3618,0.3949,0.3797,0.381,0.3757,0.3763,0.3767,0.3905,0,0.306,0.3248,0.3279,0.3408,0.3475,0.3458,0.3505,0.3544,0.3534,0.3594,0.36,0.3666,0.3587,0.3635,0.3701,0.3742,0.382,0.3705,0.3823,0.3826,0.3702,0.3839,0.3532,0.3619,0.393,0.3934,0.3938,0,0.325,0.3316,0.3466,0.3516,0.3551,0.3623,0.3633,0.3696,0.3748,0.3776,0.3834,0.3828,0.3938,0.3876,0.4017,0.3953,0.3969,0.3996,0.4002,0.3846,0.3725,0.3574,0.3654,0.3981,0.3977,0.3974,0.3971,0,0.3263,0.3421,0.3501,0.3531,0.3626,0.3662,0.3706,0.375,0.379,0.3914,0.399,0.4067,0.4158,0.4214,0.4187,0.4152,0.434,0.4288,0.4161,0.4148,0.3901,0.3856,0.4422,0.4422,0.4422,0.4422,0.4421,0,0.3347,0.341,0.3514,0.3553,0.3632,0.3705,0.3779,0.3848,0.3961,0.4018,0.4098,0.4173,0.4266,0.4314,0.4287,0.4288,0.4411,0.4227,0.4203,0.3926,0.3884,0.4202,0.4174,0.4427,0.4425,0.4424,0.4424,0,0.3341,0.3429,0.3505,0.3605,0.3642,0.3697,0.3816,0.3857,0.4023,0.4114,0.4183,0.4331,0.443,0.4431,0.4536,0.442,0.4434,0.4387,0.4021,0.3952,0.4155,0.4132,0.4329,0.4326,0.4323,0.432,0.4318,0,0.3362,0.3398,0.3503,0.3526,0.3568,0.3656,0.3698,0.3867,0.39,0.4149,0.4181,0.437,0.4346,0.4443,0.4377,0.4332,0.4403,0.3999,0.388,0.4204,0.4161,0.4143,0.4124,0.3594,0.3586,0.3579,0.3574,0,0.3309,0.334,0.3372,0.3423,0.3469,0.354,0.3618,0.3669,0.3841,0.3932,0.406,0.4099,0.4225,0.4058,0.4022,0.3942,0.3984,0.3866,0.4363,0.3644,0.3516,0.3471,0.3477,0.3517,0.3523,0.3527,0.353,0.3532,0.321,0.3203,0.3217,0.3257,0.3323,0.3367,0.3369,0.3438,0.3491,0.3547,0.373,0.3696,0.3775,0.3584,0.3469,0.3438,0.3696,0.3516,0.3535,0.356,0.343,0.3302,0.3237,0.3241,0.3244,0.3247,0.325,0,0.3005,0.3021,0.304,0.3063,0.3053,0.3192,0.3247,0.3184,0.3147,0.3223,0.324,0.2964,0.2876,0.3,0.2865,0.2841,0.2802,0.2734,0.2669,0.2729,0.2781,0.2609,0.2199,0.2196,0.2192,0.2189,0,0,0.2885,0.2793,0.2807,0.274,0.2812,0.2772,0.279,0.2743,0.275,0.2572,0.2531,0.2699,0.2879,0.2491,0.2456,0.2315,0.2494,0.2224,0.3074,0.3057,0.3105,0.3247,0.3051,0,0,0,0,0]},{"header":{"parameterUnit":"m.s-1","parameterCategory":2,"la1":30.2991,"la2":30.254,"lo1":-89.0895,"lo2":-89.0444,"dy":0.0017,"dx":0.0017,"nx":28,"ny":28,"refTime":"2024-07-19T03:00:00:Z","depth":"2","parameterNumber":3,"parameterNumberName":"V-component_of_CURRENTS"},"data":[0,0,0,0,0,0,0,0,0,0,0,0,0,0,0,0,0,0,0,0,0,0,0,0,0,0,0,0,0,0,0,0,0,0,0,0,0,0,0,0,0,0,0,0,0,0,0,0,0,0,0,0,0,0,0,0,0,0,-0.0105,-0.0106,0,-0.0158,-0.0159,-0.016,-0.0208,-0.0209,-0.0209,-0.021,-0.0317,-0.032,-0.0322,0,0,0,0,0,0,0,0,0,0,0,0,0,-0.0092,-0.0092,-0.0105,-0.0106,-0.0106,-0.0158,-0.0159,-0.016,-0.0208,-0.0209,-0.021,-0.021,-0.0316,-0.0319,-0.0322,0,0,0,0,0,0,0,0,0,0,0,0,0,-0.0118,-0.0092,-0.0105,-0.0136,-0.0139,-0.0158,-0.0159,-0.016,-0.0208,-0.0209,-0.021,-0.021,-0.0315,-0.0319,-0.0323,-0.0331,0,0,-0.0334,-0.0335,0,0,0,0,0,0,0,0,-0.0116,-0.0118,-0.0131,-0.0134,-0.0137,-0.0176,-0.0194,-0.0219,-0.0208,-0.0183,-0.021,-0.0211,-0.0274,-0.0281,-0.029,-0.0336,-0.034,-0.0334,-0.0336,-0.0338,-0.0339,0,0,0,0,0,0,0,-0.0114,-0.0117,-0.0127,-0.0131,-0.0135,-0.0163,-0.0167,-0.0199,-0.0226,-0.0185,-0.0189,-0.0192,-0.0276,-0.0287,-0.0293,-0.0342,-0.0334,-0.0337,-0.0339,-0.0341,-0.041,-0.041,0,0,0,0,0,0,-0.0102,-0.0115,-0.0126,-0.0129,-0.0127,-0.0162,-0.0167,-0.0164,-0.0224,-0.0234,-0.0192,-0.0195,-0.028,-0.0289,-0.0297,-0.0319,-0.0338,-0.0341,-0.0343,-0.0411,-0.041,-0.041,0,0,0,0,0,0,-0.0101,-0.0102,-0.0124,-0.0123,-0.0127,-0.0161,-0.0158,-0.0165,-0.018,-0.0228,-0.0239,-0.02,-0.0281,-0.0292,-0.0322,-0.0324,-0.0343,-0.0346,-0.0411,-0.041,-0.041,-0.0358,0,0,0,0,0,0,-0.0101,-0.0101,-0.0096,-0.0121,-0.0127,-0.0137,-0.0157,-0.0165,-0.018,-0.0184,-0.0239,-0.0249,-0.0282,-0.0316,-0.0325,-0.0329,-0.0349,-0.0411,-0.0411,-0.041,-0.036,-0.0356,-0.0352,0,0,0,0,0,-0.01,-0.0082,-0.0095,-0.0096,-0.0117,-0.0137,-0.0142,-0.017,-0.0179,-0.0186,-0.0216,-0.0248,-0.0319,-0.0318,-0.0329,-0.0334,-0.0412,-0.0411,-0.041,-0.0362,-0.0356,-0.0352,0,0,0,0,0,0,-0.0071,-0.0086,-0.0101,-0.0088,-0.0114,-0.0145,-0.0157,-0.0167,-0.0194,-0.0206,-0.0243,-0.0256,-0.0284,-0.0312,-0.031,-0.0351,-0.0371,-0.0372,-0.033,-0.0326,-0.0322,-0.0281,-0.0352,0,0,0,0,0,-0.0062,-0.0059,-0.0082,-0.0078,-0.0094,-0.0125,-0.0136,-0.0156,-0.0182,-0.0195,-0.0225,-0.0261,-0.0288,-0.0308,-0.0341,-0.0362,-0.0376,-0.0372,-0.0368,-0.0364,-0.0338,-0.0347,-0.0341,-0.0407,-0.0407,-0.0407,0,0,-0.0051,-0.0059,-0.0058,-0.0073,-0.0103,-0.0113,-0.0135,-0.0159,-0.015,-0.0203,-0.021,-0.025,-0.029,-0.0313,-0.0329,-0.0339,-0.036,-0.0363,-0.036,-0.0335,-0.0345,-0.0339,-0.0333,-0.0407,-0.0407,-0.0407,0,0,-0.0039,-0.0041,-0.0046,-0.006,-0.0096,-0.011,-0.0113,-0.0145,-0.0147,-0.0164,-0.0192,-0.0223,-0.0273,-0.0291,-0.0308,-0.0299,-0.0337,-0.032,-0.0269,-0.0278,-0.0272,-0.0267,-0.0303,-0.0301,-0.0318,-0.0318,-0.0318,0,-0.0028,-0.0015,-0.0051,-0.0062,-0.0051,-0.0104,-0.0093,-0.011,-0.0138,-0.0119,-0.0165,-0.0205,-0.0258,-0.025,-0.0257,-0.0289,-0.0305,-0.0286,-0.0271,-0.0266,-0.0262,-0.03,-0.0298,-0.0316,-0.0316,-0.0316,-0.0317,0,-0.0028,-0.0007,-0.0013,-0.0031,-0.0038,-0.0033,-0.0057,-0.0057,-0.0073,-0.008,-0.0083,-0.015,-0.0162,-0.02,-0.0234,-0.0221,-0.0248,-0.0265,-0.028,-0.0252,-0.0294,-0.0294,-0.0312,-0.0313,-0.0314,-0.0314,0,0,-0.0002,-0.0004,0.0001,0.0022,-0.0001,-0.0,0.0012,0.0035,0.0067,0.001,0.006,-0.002,-0.0049,-0.0068,-0.0116,-0.0142,-0.0159,-0.0188,-0.0189,-0.0215,-0.0192,-0.0256,-0.0263,-0.017,-0.0169,-0.0168,-0.0244,0,0.0024,0.0056,0.0044,0.0086,0.011,0.0095,0.0121,0.0124,0.012,0.0143,0.0089,0.0095,0.0002,-0.0002,-0.0044,-0.0109,-0.015,-0.0137,-0.0221,-0.0223,-0.0277,-0.0261,-0.0223,-0.029,-0.0244,-0.0244,-0.0244,0,0.005,0.0078,0.014,0.0196,0.02,0.0215,0.0279,0.0295,0.0306,0.031,0.0298,0.025,0.0221,0.0128,0.0026,0.0042,-0.0067,-0.0144,-0.0149,-0.0217,-0.0285,-0.0306,-0.0291,-0.0244,-0.0244,-0.0244,-0.0244,0,0.0126,0.0164,0.0239,0.0253,0.0278,0.0319,0.0338,0.0357,0.0388,0.0435,0.0454,0.0406,0.0403,0.0271,0.0079,0.0072,-0.0058,-0.0084,-0.0252,-0.026,-0.0245,-0.0252,-0.0166,-0.0166,-0.0165,-0.0165,-0.0165,0,0.0203,0.0255,0.0285,0.0323,0.0387,0.0397,0.0465,0.0487,0.0529,0.0566,0.0551,0.0579,0.0442,0.0332,0.0138,-0.0061,-0.0014,-0.0232,-0.0272,-0.0232,-0.0237,-0.0204,-0.0208,-0.0168,-0.0167,-0.0167,-0.0166,0,0.0249,0.0299,0.0353,0.0402,0.0423,0.046,0.0508,0.055,0.0619,0.0673,0.0698,0.0728,0.0639,0.0426,0.0231,0.004,-0.0166,-0.0265,-0.0227,-0.0262,-0.0374,-0.0374,-0.0409,-0.0412,-0.0414,-0.0416,-0.0417,0,0.0267,0.0304,0.0367,0.0398,0.0417,0.0475,0.051,0.0581,0.0631,0.0746,0.078,0.0772,0.0761,0.0469,0.0164,-0.0158,-0.0206,-0.0361,-0.0369,-0.0357,-0.0394,-0.039,-0.0387,-0.0342,-0.0343,-0.0344,-0.0344,0,0.0231,0.0257,0.0287,0.0371,0.0424,0.0483,0.0557,0.0622,0.0716,0.0841,0.0991,0.102,0.0774,0.0545,0.0106,-0.0124,-0.0299,-0.0386,-0.0357,-0.0294,-0.0303,-0.0336,-0.0333,-0.035,-0.035,-0.0349,-0.0349,-0.0349,0.0152,0.0164,0.0226,0.0312,0.0386,0.0512,0.0614,0.0738,0.0911,0.1126,0.1106,0.1206,0.0887,0.0421,0.0031,-0.035,-0.0334,-0.0472,-0.0466,-0.046,-0.0446,-0.0458,-0.0534,-0.0534,-0.0535,-0.0535,-0.0535,0,0.0067,0.0112,0.0165,0.0302,0.0419,0.048,0.0656,0.0827,0.1108,0.1248,0.1407,0.1139,0.0856,0.0482,-0.0078,-0.0444,-0.0447,-0.0553,-0.0466,-0.0458,-0.0452,-0.0435,-0.0522,-0.0523,-0.0523,-0.0524,0,0,0.001,0.0068,0.0142,0.0326,0.0441,0.0654,0.0803,0.1088,0.1275,0.149,0.1556,0.1507,0.102,0.0616,0.0131,-0.0179,-0.023,-0.0245,-0.0221,-0.0054,-0.0043,-0.0379,-0.0341,0,0,0,0,0]}],[{"header":{"parameterUnit":"m.s-1","parameterCategory":2,"la1":30.2991,"la2":30.254,"lo1":-89.0895,"lo2":-89.0444,"dy":0.0017,"dx":0.0017,"nx":28,"ny":28,"refTime":"2024-07-19T03:00:00:Z","depth":"4","parameterNumber":2,"parameterNumberName":"U-component_of_CURRENTS"},"data":[0,0,0,0,0,0,0,0,0,0,0,0,0,0,0,0,0,0,0,0,0,0,0,0,0,0,0,0,0,0,0,0,0,0,0,0,0,0,0,0,0,0,0,0,0,0,0,0,0,0,0,0,0,0,0,0,0,0,0.1396,0.1396,0,0.1433,0.1434,0.1434,0.1496,0.1497,0.1499,0.15,0.1619,0.1621,0.1623,0,0,0,0,0,0,0,0,0,0,0,0,0,0.134,0.134,0.1396,0.1396,0.1397,0.1433,0.1434,0.1434,0.1496,0.1497,0.1499,0.1501,0.1619,0.1621,0.1623,0,0,0,0,0,0,0,0,0,0,0,0,0,0.1366,0.1341,0.1396,0.1435,0.1439,0.1433,0.1434,0.1434,0.1495,0.1497,0.15,0.1502,0.1618,0.1621,0.1624,0.1597,0,0,0.1632,0.1633,0,0,0,0,0,0,0,0,0.1365,0.1368,0.1428,0.1432,0.1437,0.1465,0.1458,0.1494,0.1495,0.1471,0.15,0.1503,0.1576,0.1582,0.1579,0.1603,0.1608,0.1632,0.1634,0.1635,0.1636,0,0,0,0,0,0,0,0.1363,0.1367,0.1408,0.1429,0.1434,0.1438,0.1444,0.1464,0.151,0.1473,0.1478,0.1487,0.1579,0.1576,0.1582,0.161,0.1632,0.1635,0.1636,0.1637,0.1769,0.1771,0,0,0,0,0,0,0.1364,0.1365,0.1406,0.1409,0.1409,0.1437,0.1444,0.1451,0.1508,0.1519,0.1485,0.149,0.157,0.1579,0.1587,0.1693,0.1635,0.1638,0.1639,0.1768,0.177,0.1772,0,0,0,0,0,0,0.1363,0.1367,0.1405,0.139,0.1396,0.1437,0.1444,0.1451,0.1491,0.1517,0.1529,0.1523,0.1572,0.1583,0.1653,0.1694,0.1639,0.1641,0.1765,0.1768,0.1771,0.1821,0,0,0,0,0,0,0.1361,0.1366,0.1379,0.139,0.1397,0.1404,0.1442,0.145,0.1492,0.1499,0.1553,0.1563,0.1575,0.1649,0.1656,0.1697,0.1644,0.1763,0.1767,0.177,0.1817,0.1825,0.1832,0,0,0,0,0,0.1359,0.1344,0.1379,0.1385,0.1411,0.1404,0.1406,0.1441,0.1492,0.149,0.1561,0.1564,0.1676,0.1653,0.166,0.1703,0.1761,0.1766,0.177,0.1814,0.1823,0.1832,0,0,0,0,0,0,0.1324,0.135,0.1389,0.1386,0.1405,0.1416,0.1413,0.146,0.151,0.1529,0.1584,0.1598,0.1668,0.1681,0.1654,0.1752,0.172,0.1726,0.1751,0.176,0.1768,0.1795,0.1646,0,0,0,0,0,0.1326,0.1331,0.1357,0.1363,0.1364,0.1405,0.1416,0.1439,0.148,0.1506,0.1563,0.1624,0.168,0.172,0.1745,0.1802,0.1829,0.1836,0.1844,0.185,0.1879,0.197,0.1989,0.1786,0.1786,0.1785,0,0,0.1321,0.1334,0.1343,0.1358,0.1372,0.1384,0.1415,0.1418,0.147,0.1509,0.1601,0.1641,0.1698,0.176,0.1794,0.1787,0.1914,0.1855,0.1861,0.1887,0.1976,0.1996,0.2014,0.1788,0.1788,0.1787,0,0,0.1279,0.1317,0.1296,0.1308,0.1326,0.1366,0.1381,0.1416,0.1468,0.1536,0.16,0.167,0.1746,0.1804,0.1844,0.1909,0.194,0.1931,0.2008,0.2096,0.2114,0.213,0.2153,0.2171,0.1949,0.1949,0.1949,0,0.1277,0.1278,0.1289,0.1269,0.1316,0.1371,0.1392,0.1431,0.1503,0.158,0.1566,0.1736,0.1762,0.1897,0.1932,0.1924,0.198,0.1967,0.2107,0.2124,0.214,0.216,0.2179,0.1952,0.1952,0.1951,0.1951,0,0.1206,0.1238,0.1221,0.1256,0.1292,0.1311,0.1382,0.1448,0.1536,0.1605,0.1737,0.1772,0.1901,0.1905,0.1948,0.2097,0.2098,0.2093,0.2083,0.2163,0.2178,0.2198,0.1956,0.1955,0.1954,0.1953,0,0,0.1147,0.1179,0.1189,0.1235,0.1307,0.1331,0.1433,0.1564,0.1669,0.1726,0.1876,0.1955,0.2017,0.2069,0.212,0.2192,0.232,0.2223,0.2226,0.2244,0.2511,0.2325,0.2327,0.2376,0.2381,0.2385,0.2462,0,0.1121,0.1136,0.1169,0.1245,0.1276,0.1387,0.1481,0.1601,0.1726,0.1866,0.1947,0.2068,0.2072,0.2146,0.2234,0.2311,0.2384,0.2299,0.2433,0.2436,0.2261,0.2347,0.2399,0.2477,0.2481,0.2484,0.2486,0,0.1052,0.1092,0.1163,0.1293,0.1317,0.1385,0.1611,0.169,0.189,0.1986,0.2143,0.2215,0.2371,0.2327,0.2508,0.2479,0.2527,0.254,0.2544,0.2375,0.2287,0.2391,0.2521,0.2518,0.2516,0.2513,0.2511,0,0.1034,0.1104,0.1201,0.1234,0.136,0.1456,0.1561,0.175,0.1848,0.2091,0.2161,0.2373,0.2463,0.2572,0.2623,0.2618,0.2766,0.2743,0.2601,0.2585,0.2706,0.2688,0.2868,0.2868,0.2868,0.2868,0.2868,0,0.1012,0.1074,0.1204,0.1242,0.1349,0.1455,0.1601,0.1738,0.1935,0.2044,0.2226,0.2314,0.2544,0.2641,0.2686,0.2693,0.2825,0.2636,0.2614,0.2716,0.27,0.2716,0.2698,0.2871,0.287,0.287,0.2869,0,0.0951,0.1045,0.1119,0.1277,0.133,0.1404,0.1581,0.1681,0.1865,0.2015,0.2091,0.2342,0.2484,0.2608,0.2783,0.2731,0.2758,0.2721,0.2796,0.2774,0.2505,0.2488,0.2595,0.259,0.2585,0.2582,0.2578,0,0.0919,0.0958,0.1111,0.1149,0.1224,0.1345,0.1426,0.1642,0.1746,0.1977,0.2032,0.2249,0.2387,0.2459,0.2625,0.27,0.2673,0.2658,0.2616,0.2519,0.2488,0.2479,0.2468,0.2571,0.257,0.2569,0.2567,0,0.0828,0.0899,0.0955,0.1051,0.1145,0.1219,0.1362,0.1425,0.1657,0.1817,0.1955,0.2063,0.2218,0.2385,0.2465,0.2499,0.2657,0.2609,0.2619,0.258,0.249,0.2462,0.2458,0.2551,0.2554,0.2555,0.2556,0,0.0746,0.0753,0.0847,0.0922,0.101,0.1082,0.1174,0.1309,0.1435,0.1713,0.1758,0.1966,0.22,0.2277,0.2328,0.2379,0.2366,0.2292,0.2318,0.2337,0.2221,0.2067,0.2003,0,0,0,0,0,0.066,0.0671,0.0718,0.0791,0.0877,0.0952,0.1119,0.1227,0.1444,0.1502,0.164,0.1771,0.1924,0.2043,0.2056,0.2215,0.236,0.2215,0.2281,0.2463,0.2481,0.2371,0,0,0,0,0,0,0.0591,0.0629,0.0669,0.0672,0.0707,0.0804,0.0913,0.1069,0.1123,0.1352,0.1461,0.1632,0.1822,0.1896,0.2007,0.2045,0.2045,0.2364,0.2359,0.2452,0.2469,0.2484,0.2377,0,0,0,0,0]},{"header":{"parameterUnit":"m.s-1","parameterCategory":2,"la1":30.2991,"la2":30.254,"lo1":-89.0895,"lo2":-89.0444,"dy":0.0017,"dx":0.0017,"nx":28,"ny":28,"refTime":"2024-07-19T03:00:00:Z","depth":"4","parameterNumber":3,"parameterNumberName":"V-component_of_CURRENTS"},"data":[0,0,0,0,0,0,0,0,0,0,0,0,0,0,0,0,0,0,0,0,0,0,0,0,0,0,0,0,0,0,0,0,0,0,0,0,0,0,0,0,0,0,0,0,0,0,0,0,0,0,0,0,0,0,0,0,0,0,0.0051,0.0051,0,0.0046,0.0046,0.0046,0.0015,0.0014,0.0013,0.0012,-0.0073,-0.0074,-0.0075,0,0,0,0,0,0,0,0,0,0,0,0,0,0.0009,0.001,0.0051,0.0051,0.005,0.0046,0.0046,0.0046,0.0015,0.0014,0.0012,0.0011,-0.0072,-0.0074,-0.0075,0,0,0,0,0,0,0,0,0,0,0,0,0,0.002,0.001,0.0051,0.0032,0.0031,0.0046,0.0046,0.0046,0.0015,0.0014,0.0012,0.0011,-0.0072,-0.0074,-0.0076,-0.0059,0,0,-0.0082,-0.0083,0,0,0,0,0,0,0,0,0.0019,0.0022,0.0035,0.0034,0.0032,0.0027,0.0,0.0007,0.0015,0.0023,0.0012,0.001,-0.0047,-0.0051,-0.0044,-0.0063,-0.0066,-0.0082,-0.0083,-0.0084,-0.0085,0,0,0,0,0,0,0,0.0019,0.0022,0.0051,0.0035,0.0033,0.0016,0.0016,0.0002,-0.0003,0.0023,0.002,0.0016,-0.0049,-0.0042,-0.0047,-0.0068,-0.0082,-0.0084,-0.0085,-0.0086,-0.0108,-0.0108,0,0,0,0,0,0,0.0018,0.0021,0.0051,0.0051,0.0019,0.0018,0.0018,0.0032,-0.0001,-0.0008,0.0017,0.0015,-0.0038,-0.0044,-0.005,-0.0045,-0.0084,-0.0086,-0.0087,-0.0109,-0.0108,-0.0108,0,0,0,0,0,0,0.0018,0.0022,0.0052,0.0033,0.0035,0.002,0.0036,0.0033,0.0037,-0.0005,-0.0013,0.0023,-0.0039,-0.0047,-0.0065,-0.0048,-0.0087,-0.0089,-0.011,-0.0109,-0.0108,-0.0026,0,0,0,0,0,0,0.0017,0.0022,0.0036,0.0034,0.0036,0.0077,0.0037,0.0034,0.0035,0.0032,-0.0002,-0.0012,-0.0041,-0.0062,-0.0067,-0.0052,-0.009,-0.0111,-0.0109,-0.0108,-0.003,-0.0023,-0.0017,0,0,0,0,0,0.0016,0.0051,0.0038,0.0041,0.0056,0.0079,0.008,0.0064,0.0037,0.0058,0.0018,-0.0011,-0.0059,-0.0063,-0.0069,-0.0054,-0.0111,-0.011,-0.0108,-0.0033,-0.0024,-0.0017,0,0,0,0,0,0,0.0043,0.0051,0.0036,0.0072,0.0077,0.0073,0.0096,0.0071,0.006,0.0056,-0.0,-0.001,-0.0019,-0.0048,-0.0051,-0.0058,-0.0091,-0.009,-0.0031,-0.0023,-0.0017,-0.0039,-0.0092,0,0,0,0,0,0.0055,0.0084,0.008,0.011,0.012,0.0106,0.0111,0.0103,0.0088,0.0083,0.005,0.0014,-0.0015,-0.0029,-0.005,-0.005,-0.0112,-0.0047,-0.004,-0.0034,-0.0057,-0.0134,-0.0137,-0.0103,-0.0103,-0.0103,0,0,0.0071,0.008,0.0095,0.0117,0.0125,0.0153,0.0108,0.0136,0.0139,0.0075,0.0075,0.0041,-0.001,-0.0012,-0.0019,-0.0037,-0.007,-0.0033,-0.0027,-0.0054,-0.0133,-0.0136,-0.014,-0.0102,-0.0102,-0.0103,0,0,0.0135,0.0135,0.0185,0.0196,0.0213,0.0201,0.0208,0.0208,0.0192,0.0193,0.0135,0.0103,0.0081,0.0035,0.0009,0.0037,-0.0031,0.0039,0.0053,-0.0019,-0.0024,-0.0028,-0.0087,-0.0098,0.0041,0.0041,0.0041,0,0.0153,0.0201,0.0203,0.0252,0.0248,0.0224,0.0256,0.0252,0.0237,0.0199,0.0207,0.0122,0.0099,0.0038,0.0055,0.0051,-0.0003,0.0031,-0.0012,-0.0018,-0.0024,-0.0084,-0.0097,0.0045,0.0044,0.0044,0.0044,0,0.0252,0.0279,0.0314,0.0351,0.0358,0.0384,0.0366,0.0357,0.0326,0.0293,0.0239,0.0202,0.0133,0.0138,0.0111,0.0052,0.0024,0.0008,-0.0033,-0.0023,-0.0086,-0.0101,0.0051,0.0049,0.0048,0.0047,0,0,0.0306,0.0365,0.0375,0.0378,0.0398,0.0406,0.0408,0.037,0.0336,0.0322,0.0257,0.0228,0.0177,0.0142,0.0098,0.0046,-0.0011,0.0016,0.001,-0.0044,-0.0173,-0.0136,-0.0149,-0.0039,-0.0042,-0.0044,-0.0192,0,0.0368,0.0443,0.0457,0.0495,0.0513,0.0474,0.0467,0.0428,0.0383,0.0326,0.0251,0.0202,0.0187,0.0156,0.0099,0.0008,-0.0051,0.003,-0.0176,-0.0182,-0.0152,-0.0165,-0.0052,-0.0204,-0.0207,-0.021,-0.0212,0,0.0452,0.0474,0.0525,0.051,0.0516,0.0535,0.0462,0.0463,0.0375,0.0335,0.0255,0.0193,0.0101,0.0105,-0.0064,-0.0015,-0.0093,-0.0153,-0.0161,-0.0175,-0.0173,-0.0224,-0.0239,-0.0237,-0.0235,-0.0233,-0.0231,0,0.0452,0.0508,0.0528,0.0534,0.0537,0.0526,0.0519,0.0456,0.044,0.0336,0.031,0.0168,0.0119,-0.0012,-0.0122,-0.0107,-0.0303,-0.03,-0.0349,-0.0347,-0.0374,-0.0368,-0.0432,-0.0432,-0.0431,-0.0431,-0.043,0,0.0483,0.0496,0.0532,0.054,0.0549,0.0545,0.0538,0.0499,0.0452,0.0437,0.0324,0.0278,0.009,-0.0036,-0.015,-0.0292,-0.0333,-0.0366,-0.0391,-0.033,-0.0318,-0.0383,-0.0376,-0.0436,-0.0435,-0.0434,-0.0433,0,0.0483,0.0509,0.0535,0.0548,0.056,0.0571,0.0594,0.0589,0.0539,0.0515,0.0488,0.0342,0.0185,-0.0001,-0.022,-0.0302,-0.0456,-0.0498,-0.0422,-0.0438,-0.0449,-0.0435,-0.0582,-0.0582,-0.0582,-0.0582,-0.0582,0,0.0487,0.0505,0.0557,0.0587,0.0603,0.0628,0.0657,0.0636,0.0644,0.0568,0.0564,0.0398,0.0288,0.0004,-0.0195,-0.0452,-0.0467,-0.0561,-0.0507,-0.0458,-0.0469,-0.0455,-0.0441,-0.0582,-0.0582,-0.0582,-0.0582,0,0.0483,0.0515,0.0546,0.0619,0.0667,0.0713,0.0753,0.0762,0.0742,0.07,0.062,0.0453,0.0271,0.0031,-0.0178,-0.0351,-0.0512,-0.0562,-0.0563,-0.0512,-0.0461,-0.0468,-0.0454,-0.0582,-0.0582,-0.0582,-0.0582,0,0.0493,0.052,0.0585,0.0646,0.072,0.0781,0.0792,0.0806,0.0808,0.0734,0.0705,0.0496,0.0357,0.0084,-0.0102,-0.0282,-0.0313,-0.0359,-0.0371,-0.0373,-0.0258,-0.0158,-0.0225,0,0,0,0,0,0.0499,0.0538,0.0602,0.0677,0.0758,0.0797,0.0853,0.0859,0.0844,0.081,0.0758,0.0594,0.0304,0.0166,-0.0005,-0.0103,-0.0351,-0.0309,-0.0411,-0.0584,-0.0583,-0.0479,0,0,0,0,0,0,0.0502,0.0567,0.0602,0.0704,0.0757,0.0843,0.0882,0.0872,0.0849,0.0804,0.0656,0.0563,0.0281,0.0404,-0.0006,-0.0065,-0.0149,-0.0453,-0.0456,-0.0584,-0.0584,-0.0583,-0.0476,0,0,0,0,0]}]]